TimeCDT,TemperatureF,Dew PointF,Humidity,Sea Level PressureIn,VisibilityMPH,Wind Direction,Wind SpeedMPH,Gust SpeedMPH,PrecipitationIn,Events,Conditions,WindDirDegrees,DateUTC
12:15 AM,28.4,28.4,100,30.32,10.0,Calm,Calm,-,N/A,,Clear,0,2013-04-17 05:15:00
12:35 AM,26.6,26.6,100,30.32,10.0,Calm,Calm,-,N/A,,Clear,0,2013-04-17 05:35:00
12:55 AM,26.6,26.6,100,30.32,10.0,Calm,Calm,-,N/A,,Clear,0,2013-04-17 05:55:00
1:15 AM,26.6,26.6,100,30.32,10.0,Calm,Calm,-,N/A,,Clear,0,2013-04-17 06:15:00
1:35 AM,26.6,26.6,100,30.31,10.0,Calm,Calm,-,N/A,,Clear,0,2013-04-17 06:35:00
1:55 AM,28.4,28.4,100,30.30,10.0,Calm,Calm,-,N/A,,Clear,0,2013-04-17 06:55:00
2:15 AM,28.4,28.4,100,30.31,10.0,West,3.5,-,N/A,,Clear,260,2013-04-17 07:15:00
2:35 AM,26.6,26.6,100,30.31,10.0,Calm,Calm,-,N/A,,Clear,0,2013-04-17 07:35:00
2:55 AM,26.6,26.6,100,30.30,10.0,Calm,Calm,-,N/A,,Clear,0,2013-04-17 07:55:00
3:15 AM,26.6,26.6,100,30.29,10.0,Calm,Calm,-,N/A,,Clear,0,2013-04-17 08:15:00
3:35 AM,26.6,26.6,100,30.29,10.0,Calm,Calm,-,N/A,,Clear,0,2013-04-17 08:35:00
3:55 AM,26.6,26.6,100,30.30,10.0,Calm,Calm,-,N/A,,Clear,0,2013-04-17 08:55:00
4:15 AM,26.6,26.6,100,30.30,10.0,Calm,Calm,-,N/A,,Clear,0,2013-04-17 09:15:00
4:35 AM,24.8,24.8,100,30.30,10.0,Calm,Calm,-,N/A,,Clear,0,2013-04-17 09:35:00
4:55 AM,28.4,28.4,100,30.29,10.0,NE,6.9,-,N/A,,Scattered Clouds,50,2013-04-17 09:55:00
5:15 AM,32.0,30.2,93,30.28,10.0,ENE,6.9,-,N/A,,Overcast,60,2013-04-17 10:15:00
5:35 AM,32.0,30.2,93,30.27,10.0,ENE,8.1,-,N/A,,Overcast,60,2013-04-17 10:35:00
5:55 AM,32.0,30.2,93,30.26,10.0,ENE,8.1,-,N/A,,Mostly Cloudy,70,2013-04-17 10:55:00
6:15 AM,32.0,30.2,93,30.26,10.0,East,8.1,18.4,N/A,,Overcast,80,2013-04-17 11:15:00
6:35 AM,32.0,32.0,100,30.27,10.0,East,8.1,-,N/A,,Overcast,80,2013-04-17 11:35:00
6:55 AM,32.0,32.0,100,30.26,10.0,East,8.1,-,N/A,,Overcast,80,2013-04-17 11:55:00
7:15 AM,33.8,32.0,93,30.25,10.0,ENE,10.4,-,N/A,,Overcast,70,2013-04-17 12:15:00
7:35 AM,33.8,30.2,87,30.29,10.0,East,5.8,-,N/A,,Overcast,100,2013-04-17 12:35:00
7:55 AM,33.8,30.2,87,30.31,10.0,ESE,6.9,-,N/A,,Overcast,120,2013-04-17 12:55:00
8:15 AM,35.6,30.2,81,30.31,10.0,East,11.5,-,N/A,,Overcast,100,2013-04-17 13:15:00
8:35 AM,35.6,30.2,81,30.32,10.0,East,6.9,-,N/A,,Overcast,100,2013-04-17 13:35:00
8:55 AM,35.6,30.2,81,30.30,10.0,East,9.2,17.3,N/A,,Overcast,80,2013-04-17 13:55:00
9:35 AM,35.6,30.2,81,30.25,10.0,ENE,13.8,17.3,N/A,,Overcast,60,2013-04-17 14:35:00
9:55 AM,35.6,30.2,81,30.20,10.0,ENE,15.0,19.6,N/A,,Overcast,70,2013-04-17 14:55:00
10:15 AM,35.6,30.2,81,30.22,10.0,ENE,13.8,17.3,N/A,,Overcast,70,2013-04-17 15:15:00
10:35 AM,37.4,30.2,75,30.24,10.0,East,10.4,-,N/A,,Overcast,80,2013-04-17 15:35:00
10:55 AM,37.4,30.2,75,30.21,10.0,ENE,10.4,-,N/A,,Overcast,70,2013-04-17 15:55:00
11:15 AM,37.4,30.2,75,30.22,10.0,East,9.2,-,N/A,,Overcast,100,2013-04-17 16:15:00
11:35 AM,37.4,30.2,75,30.24,10.0,East,6.9,-,N/A,,Overcast,100,2013-04-17 16:35:00
11:55 AM,37.4,30.2,75,30.25,10.0,East,3.5,-,N/A,,Overcast,90,2013-04-17 16:55:00
12:15 PM,39.2,30.2,70,30.25,10.0,Calm,Calm,-,N/A,Rain,Light Rain,0,2013-04-17 17:15:00
12:35 PM,37.4,32.0,81,30.24,10.0,NE,4.6,-,N/A,Rain,Light Rain,40,2013-04-17 17:35:00
12:55 PM,37.4,32.0,81,30.22,10.0,NNE,6.9,-,N/A,Rain,Light Rain,20,2013-04-17 17:55:00
1:15 PM,37.4,32.0,81,30.21,5.0,NE,8.1,-,0.01,Rain,Rain,40,2013-04-17 18:15:00
1:35 PM,35.6,33.8,93,30.19,4.0,NE,9.2,-,0.04,Rain,Rain,50,2013-04-17 18:35:00
1:55 PM,35.6,35.6,100,30.20,2.5,East,4.6,-,0.07,Rain,Light Rain,90,2013-04-17 18:55:00
2:15 PM,35.6,35.6,100,30.15,5.0,East,8.1,-,0.02,Rain,Light Rain,80,2013-04-17 19:15:00
2:35 PM,35.6,35.6,100,30.00,10.0,ENE,28.8,33.4,0.02,Rain,Light Rain,70,2013-04-17 19:35:00
2:55 PM,37.4,35.6,93,30.11,10.0,ENE,11.5,-,0.02,,Mostly Cloudy,60,2013-04-17 19:55:00
3:15 PM,37.4,35.6,93,30.07,10.0,ENE,16.1,21.9,N/A,,Overcast,60,2013-04-17 20:15:00
3:55 PM,37.4,35.6,93,30.07,10.0,East,15.0,20.7,N/A,,Overcast,90,2013-04-17 20:55:00
4:15 PM,39.2,33.8,81,30.06,10.0,East,13.8,23.0,N/A,,Overcast,90,2013-04-17 21:15:00
4:35 PM,39.2,33.8,81,30.05,10.0,East,10.4,18.4,N/A,,Overcast,100,2013-04-17 21:35:00
4:55 PM,39.2,33.8,81,30.05,10.0,East,10.4,19.6,N/A,,Overcast,90,2013-04-17 21:55:00
5:15 PM,39.2,33.8,81,30.05,10.0,East,9.2,19.6,N/A,,Overcast,90,2013-04-17 22:15:00
5:35 PM,39.2,33.8,81,30.04,10.0,East,9.2,17.3,N/A,,Overcast,90,2013-04-17 22:35:00
5:55 PM,39.2,33.8,81,30.02,10.0,East,10.4,18.4,N/A,,Overcast,90,2013-04-17 22:55:00
6:15 PM,39.2,33.8,81,30.03,10.0,East,9.2,17.3,N/A,,Overcast,80,2013-04-17 23:15:00
6:35 PM,37.4,33.8,87,29.98,10.0,East,11.5,17.3,N/A,,Overcast,90,2013-04-17 23:35:00
6:55 PM,37.4,33.8,87,29.97,10.0,ENE,12.7,24.2,N/A,,Overcast,70,2013-04-17 23:55:00
7:15 PM,37.4,33.8,87,29.94,10.0,East,13.8,19.6,N/A,,Overcast,80,2013-04-18 00:15:00
7:35 PM,37.4,33.8,87,29.94,10.0,ENE,10.4,21.9,N/A,,Overcast,70,2013-04-18 00:35:00
7:55 PM,37.4,33.8,87,29.96,10.0,ENE,11.5,17.3,N/A,,Overcast,70,2013-04-18 00:55:00
8:15 PM,37.4,33.8,87,29.90,10.0,East,16.1,21.9,N/A,,Overcast,80,2013-04-18 01:15:00
8:35 PM,37.4,33.8,87,29.93,10.0,ENE,10.4,-,N/A,,Overcast,70,2013-04-18 01:35:00
8:55 PM,37.4,33.8,87,29.97,10.0,East,9.2,-,N/A,,Overcast,80,2013-04-18 01:55:00
9:35 PM,35.6,35.6,100,29.96,1.8,East,8.1,-,N/A,Rain,Light Rain,80,2013-04-18 02:35:00
9:55 PM,35.6,35.6,100,29.95,2.0,East,6.9,-,N/A,Rain,Rain,80,2013-04-18 02:55:00
10:15 PM,35.6,35.6,100,29.95,2.5,ENE,4.6,-,0.01,Rain,Rain,60,2013-04-18 03:15:00
10:35 PM,35.6,35.6,100,29.93,2.5,NE,4.6,-,0.02,Rain,Light Rain,40,2013-04-18 03:35:00
10:55 PM,35.6,35.6,100,29.93,5.0,NE,6.9,-,0.03,Rain,Rain,50,2013-04-18 03:55:00
11:15 PM,35.6,35.6,100,29.92,2.5,NE,5.8,-,0.04,Rain,Rain,40,2013-04-18 04:15:00
11:35 PM,35.6,35.6,100,29.91,1.8,NNE,5.8,-,0.08,Rain,Rain,20,2013-04-18 04:35:00
11:55 PM,35.6,35.6,100,29.88,1.5,NNE,9.2,-,0.14,Rain,Light Rain,20,2013-04-18 04:55:00